Tracking 18785 objects as of 23-July-2017
HD Live streaming from Space Station
objects crossing your sky now
MAYAK may become the brightest orbital object in the night sky!
Where is MAYAK now?
How to spot MAYAK

COSMOS 1241

Track COSMOS 1241 now!
10-day predictions
COSMOS 1241 is classified as:


NORAD ID: 12149
Int'l Code: 1981-006A
Perigee: 981.3 km
Apogee: 1,016.6 km
Inclination: 65.8 °
Period: 104.9 minutes
Semi major axis: 7369 km
RCS: 1.4995 m2 (large)
Launch date: January 21, 1981
Source: Commonwealth of Independent States (former USSR) (CIS)
Launch site: PLESETSK MISSILE AND SPACE COMPLEX (PKMTR)
Your satellite tracking list
Your tracking list is empty





NASA's NSSDC Master Catalog

Two Line Element Set (TLE):
1 12149U 81006A   17203.97242220 -.00000085 +00000-0 -51981-5 0  9997
2 12149 065.8205 208.3714 0023968 273.5023 104.7025 13.72164695828719
Source of the keplerian elements: AFSPC